Regional Weather Roundup
Issued by NWS

Home | Current Version | Previous Version | Text Only | Print | Product List | Glossary Off
Versions: 1 2 3 4 5 6 7 8 9 10 11 12 13 14 15 16 17 18 19 20 21 22 23 24 25 26 27 28 29 30 31 32 33 34 35 36 37 38 39 40 41 42 43 44 45 46 47 48 49 50

000
ASUS43 KIND 071009
RWRIN

WEATHER ROUNDUP FOR INDIANA
NATIONAL WEATHER SERVICE INDIANAPOLIS IN
600 AM EDT TUE JUL 07 2015

NOTE: "FAIR" INDICATES FEW OR NO CLOUDS BELOW 12,000 FEET WITH NO
SIGNIFICANT WEATHER AND/OR OBSTRUCTIONS TO VISIBILITY.

* - STATION DOES NOT REPORT WEATHER SUCH AS PRECIPITATION OR FOG.

+ - STATION NOT QUALITY CONTROLLED BY THE NATIONAL WEATHER SERVICE.
    USE DATA WITH CAUTION...ESPECIALLY DEWPOINT AND RELATIVE
    HUMIDITY OBSERVATIONS.

INZ001>003-010>013-019-020-071100-
NORTHWEST INDIANA

CITY           SKY/WX    TMP DP  RH WIND       PRES   REMARKS
GARY /AIRPORT/ RAIN     N/A N/A N/A SW7       29.86R
KNOX *+        CLOUDY    70  70 100 SW3       29.85S
LA PORTE +     CLOUDY    74  74 100 CALM      29.87S
MICHIGAN CITY+ LGT RAIN  70  70 100 S3        29.86R
MONTICELLO +   CLOUDY    76  74  96 S9        29.86S
RENSSELAER +   DRIZZLE   72  72 100 CALM      29.86S
VALPARAISO     LGT RAIN  72  70  93 CALM      29.87R

$$

LMZ046-743>745-071100-
SOUTHERN LAKE MICHIGAN

STATION/POSITION TIME  TEMP    WIND        PRES    WAVE
                       AIR SEA DIR/SP/G            HT
                 (UTC) (F)     (DEG/KT/KT) (MB)    (FT)
BURNS HARBOR     1000   72     240/ 10/ 11 1011.5S
MICHIGAN CITY    1000   71     180/  6/  7   N/A
5NW MICH CITY    1000   69 67  240/  6/  8   N/A     1

$$

INZ004-005-014>016-021>024-071100-
NORTH CENTRAL INDIANA

CITY           SKY/WX    TMP DP  RH WIND       PRES   REMARKS
GOSHEN         LGT RAIN  75  72  90 SW8       29.86S FOG
LOGANSPORT +   CLOUDY    73  70  88 S12       29.88F
PERU/GRISSOM   MOCLDY    76  72  89 SW14      29.87F
ROCHESTER +    CLOUDY    77  73  88 S10G16    29.86F
SOUTH BEND     LGT RAIN  74  71  91 SW10      29.86S
WARSAW +         N/A     75  72  88 SW3       29.87S

$$

INZ006>009-017-018-025>027-071100-
NORTHEAST INDIANA

CITY           SKY/WX    TMP DP  RH WIND       PRES   REMARKS
ANGOLA *+        N/A     73  72  94 SW8       29.87F
AUBURN +       MOCLDY    73  70  88 SW6       29.89S
FORT WAYNE     MOCLDY    75  71  87 S13       29.89F
HUNTINGTON +   CLOUDY    75  72  89 SW8       29.89S

$$

INZ028-029-035-036-043>045-051>053-071100-
WEST CENTRAL INDIANA

CITY           SKY/WX    TMP DP  RH WIND       PRES   REMARKS
CRAWFORDSVL +  CLOUDY    73  70  89 S8        29.91S
GREENCASTLE +  CLOUDY    73  68  83 S6        29.93S
LAFAYETTE      CLOUDY    76  72  87 S7G17     29.86F
TERRE HAUTE    MOCLDY    76  73  91 SW12      29.90F

$$

INZ030>032-037>040-046>048-054>057-064-065-071100-
CENTRAL INDIANA

CITY           SKY/WX    TMP DP  RH WIND       PRES   REMARKS
CP ATTERBURY + CLOUDY    73  70  88 SW5       29.95F
FISHERS *+     CLOUDY    73  73 100 SW10      29.92S
FRANKFORT +      N/A    N/A N/A N/A MISG        N/A
GREENWOOD *+   MOCLDY    73  70  88 S6        29.95S
INDIANAPOLIS   CLOUDY    76  71  85 SW12      29.91S
-EAGLE CREEK   CLOUDY    76  72  87 SW7       29.92S
KOKOMO *+      MOCLDY    75  70  83 SW15      29.89F
MARION +       CLOUDY    73  71  94 SW8       29.91F
MT COMFORT *+  CLOUDY    73 N/A N/A S6        29.94S
SHELBYVILLE    CLOUDY    75  71  87 S9        29.94S
ZIONSVILLE +   CLOUDY    77  71  81 SW10      29.93S

$$

INZ033-034-041-042-049-050-058-059-071100-
EAST CENTRAL INDIANA

CITY           SKY/WX    TMP DP  RH WIND       PRES   REMARKS
MUNCIE         CLOUDY    75  71  87 SW8       29.93S

$$

INZ060-061-067>069-081>083-085>088-071100-
SOUTHWEST INDIANA

CITY           SKY/WX    TMP DP  RH WIND       PRES   REMARKS
EVANSVILLE     CLOUDY    77  72  84 SW9       29.96S
HUNTINGBURG *+ CLOUDY    75  72  88 S12       29.96F
WASHINGTON +   CLOUDY    75  71  88 S9        29.93F

$$

INZ062-063-066-070>080-084-089>092-071100-
SOUTH CENTRAL AND SOUTHEAST INDIANA

CITY           SKY/WX    TMP DP  RH WIND       PRES   REMARKS
BLOOMINGTON    CLOUDY    76  72  87 SW10      29.95S
MADISON *+     CLOUDY    72  70  94 S5        30.00F
NORTH VERNON + CLOUDY    73  73 100 S5        29.97F
SEYMOUR +      CLOUDY    75  72  88 S5        29.96S

$$




USA.gov is the U.S. government's official web portal to all federal, state and local government web resources and services.